Location: Betz
(49.1556°N, 2.9558°E)
Time: 00:14:48
(UTC+00:00)

SL-16 R/B - Pass Details

Date: 18 September 2019
Orbit: 840 x 850 km, 71.0° (Epoch: 22 October)

Event Time Altitude Azimuth Distance (km) Brightness Sun altitude
Rises 21:55:31 0° 320° (NW) 3,416 6.4 -34.2°
Reaches altitude 10° 21:58:38 10° 304° (NW) 2,477 5.3 -34.4°
Enters shadow 22:02:16 19° 264° (W) 1,905 4.2 -34.7°
